#timestamp,LO_Frequency,Hit,StdDev 
1516892415.3,286047002.1,N
1516892435.2,286047002.4,N
1516892455.9,286046998.6,N
1516892475.7,286047001.0,N
1516892495.6,286047000.6,N
1516892515.4,286046996.9,N
1516892535.3,286046999.4,N
1516892555.1,286046998.8,N
1516892556.0,286046998.8,N
1516892575.8,286046998.5,N
1516892595.7,286047000.8,N
1516892615.5,286046999.9,N
1516892665.4,286047002.3,E
1516892675.3,286047001.2,N
1516892695.1,286046999.1,P
1516892715.9,286046998.1,N
1516892735.7,286047000.6,N
1516892755.5,286046999.7,N
1516892775.4,286047001.1,N
1516892795.2,286047001.0,N
1516892815.1,286046998.1,N
1516892816.0,286046998.1,N
1516892835.8,286046999.3,N
1516892855.6,286046999.5,N
1516892875.5,286046998.7,N
1516892895.3,286046996.9,N
1516892915.2,286046998.3,N
1516892935.9,286047000.0,N
1516892955.7,286047002.4,N
1516892975.6,286047002.1,N
1516892995.4,286047002.0,N
1516893015.2,286047002.3,N
1516893035.1,286047011.9,Y
1516893036.0,286047000.0,P
1516893055.8,286047000.5,P
1516893075.7,286047000.8,P
1516893095.5,286046998.6,Y
1516893115.3,286046999.0,P
1516893135.2,286046997.7,P
1516893155.0,286046999.1,N
1516893155.9,286046999.1,N
1516893175.8,286046996.5,Y
1516893195.6,286046998.7,P
1516893215.4,286046998.3,P
1516893235.3,286046998.1,P
1516893255.1,286046999.3,N
1516893275.8,286046997.8,Y
1516893295.7,286047000.5,P
1516893315.5,286046999.8,N
1516893335.4,286047002.8,P
1516893355.2,286047002.4,N
1516893375.0,286047002.7,N
1516893375.9,286047002.7,N
1516893395.8,286046999.9,N
1516893415.6,286047000.9,N
1516893435.5,286047002.8,N
1516893455.3,286047002.8,N
1516893475.1,286047000.5,N
1516893495.9,286047000.0,N
1516893515.7,286047000.2,N
1516893535.5,286047002.0,N
1516893555.4,286047000.5,N
1516893575.2,286047002.5,N
1516893595.1,286047004.3,Y
1516893596.0,286047004.3,P
1516893615.8,286047000.5,N
1516893635.6,286046999.5,N
1516893655.5,286046996.9,N
1516893675.3,286046998.6,N
1516893695.2,286046998.7,N
1516893715.9,286046998.6,N
1516893735.7,286047000.0,N
1516893755.6,286047001.0,N
1516893775.4,286046998.7,N
1516893795.2,286046996.7,N
1516893815.1,286046997.4,N
1516893816.0,286046997.4,N
1516893865.9,286046999.5,E
1516893875.8,286046999.4,N
1516893895.6,286046999.2,P
1516893915.4,286046999.3,P
1516893935.3,286047000.0,N
1516893955.1,286046998.1,Y
1516893975.9,286047000.2,P
1516893995.7,286047000.1,N
1516894015.5,286047002.6,P
1516894035.4,286047000.2,N
1516894055.2,286047000.9,N
1516894075.0,286047000.6,N
1516894076.0,286047000.6,N
1516894095.8,286047000.4,N
1516894115.6,286047000.8,N
1516894135.5,286047000.6,N
1516894155.3,286047001.1,N
1516894175.1,286046998.4,N
1516894195.9,286047000.7,N
1516894215.7,286046999.4,N
1516894235.6,286046998.8,N
1516894255.4,286046999.0,N
1516894275.2,286047000.9,N
1516894295.1,286047000.7,N
1516894296.0,286047000.7,N
1516894315.8,286046998.4,N
1516894335.6,286047000.4,N
1516894355.5,286047002.7,N
1516894375.3,286046999.8,N
1516894395.2,286047000.1,N
1516894415.9,286047001.0,N
1516894435.7,286047000.1,N
1516894455.6,286047000.0,N
1516894475.4,286046999.7,N
1516894495.2,286047002.8,N
1516894515.1,286047002.8,N
1516894516.0,286047002.8,N
1516894535.8,286047000.2,N
1516894555.7,286046999.9,N
1516894575.5,286046999.8,N
1516894595.3,286047002.0,N
1516894615.2,286047002.7,N
1516894635.0,286047002.2,N
1516894635.9,286047002.2,N
1516894655.7,286047002.3,N
1516894675.6,286047002.1,N
1516894695.4,286047004.3,Y
1516894715.3,286046999.7,P
1516894735.1,286047000.4,N
1516894755.8,286047000.7,N
1516894775.7,286046998.3,Y
1516894795.5,286046996.5,P
1516894815.4,286046998.7,N
1516894835.2,286047000.9,N
1516894855.0,286047000.7,N
1516894855.9,286047000.7,N
1516894875.8,286046998.4,N
1516894895.6,286046999.0,N
1516894915.5,286046998.3,N
1516894935.3,286047000.4,N
1516894955.1,286047000.4,N
1516894975.9,286047000.8,N
1516894995.7,286047000.3,N
1516895015.6,286047000.2,N
1516895035.4,286047002.7,N
1516895055.2,286047004.4,Y
1516895075.1,286047004.3,P
1516895076.0,286047004.3,N
1516895095.8,286047006.0,N
1516895115.6,286047003.0,N
1516895135.5,286047002.9,N
1516895155.3,286047003.0,N
1516895175.2,286047001.5,N
1516895195.9,286047002.1,N
1516895215.7,286047001.5,N
1516895235.6,286047002.1,N
1516895255.4,286046998.2,N
1516895275.2,286047000.4,N
1516895295.1,286046998.6,N
1516895296.0,286046998.6,N
1516895315.8,286046999.4,N
1516895335.7,286047000.4,N
1516895355.5,286047002.8,N
1516895375.3,286047000.9,N
1516895395.2,286047000.6,N
1516895415.0,286047001.0,N
1516895415.9,286047001.0,N
1516895435.8,286046996.5,N
1516895455.6,286046999.3,N
1516895475.4,286046998.8,N
1516895495.3,286046998.9,N
1516895515.1,286046998.6,N
1516895535.9,286046998.3,N
1516895555.7,286046996.6,N
1516895575.5,286046996.5,N
1516895595.4,286046996.7,N
1516895615.3,286046997.7,N
1516895635.1,286046997.1,N
1516895655.9,286046997.7,N
1516895675.7,286046997.2,N
1516895695.5,286046997.5,N
1516895715.4,286046995.3,N
1516895735.2,286046995.5,N
1516895755.1,286046996.7,N
1516895756.0,286046996.7,N
1516895775.8,286046997.7,N
1516895795.6,286046997.7,N
1516895815.5,286046997.1,N
1516895835.3,286046996.5,N
1516895855.2,286046999.6,N
1516895875.0,286046999.2,N
1516895875.9,286046999.2,N
1516895895.8,286046997.5,N
1516895915.6,286046996.1,N
1516895935.4,286046995.9,N
1516895955.3,286046995.9,N
1516895975.1,286046993.5,Y
1516895995.8,286046995.3,P
